Location: Sulphur Springs
(35.1323°N, 88.6795°W)
Time: 16:36:12
(UTC+00:00)

Daily predictions for brighter satellites

Satellite Brightness Start Highest point End
(mag) Time Altitude Azimuth Time Altitude Azimuth Time Altitude Azimuth
STARLINK-67 4.0 12:00:09 10° SSW 12:02:36 37° SE 12:05:02 10° ENE
Cosmos 1570 Rocket 4.1 12:01:52 10° NNW 12:07:10 65° WSW 12:12:26 10° S
COSMOS 2406 3.3 12:02:09 10° SW 12:07:41 57° WNW 12:13:16 10° NNE
